This is the latest recevied weather packets stored in our database for station/object KD8UTJ. If no packets are shown the sender has not sent any weather packets the latest 10 day(s).
| Time | Temp. | Humidity | Pressure | Rain* | Wind** | Luminosity | Snow |
|---|---|---|---|---|---|---|---|
| 1778100662 | 27.22° C | 66% | 1018.1 hPa | 0 mm | - | 429 W/m² | - |
| 1778100361 | 27.22° C | 67% | 1018.2 hPa | 0 mm | - | 471 W/m² | - |
| 1778100057 | 27.22° C | 67% | 1018.1 hPa | 0 mm | - | 501 W/m² | - |
| 1778099756 | 27.22° C | 68% | 1018.2 hPa | 0 mm | - | 455 W/m² | - |
| 1778099452 | 27.78° C | 66% | 1018 hPa | 0 mm | - | 336 W/m² | - |
| 1778099150 | 27.78° C | 68% | 1018.2 hPa | 0 mm | - | 528 W/m² | - |
| 1778098846 | 27.78° C | 66% | 1018.1 hPa | 0 mm | - | 554 W/m² | - |
| 1778098544 | 27.78° C | 66% | 1018.3 hPa | 0 mm | - | 518 W/m² | - |
| 1778098240 | 27.78° C | 66% | 1018.3 hPa | 0 mm | - | 574 W/m² | - |
| 1778097936 | 27.78° C | 66% | 1018.1 hPa | 0 mm | - | 552 W/m² | - |
| 1778097633 | 27.78° C | 67% | 1018.2 hPa | 0 mm | - | 596 W/m² | - |
| 1778097330 | 27.78° C | 66% | 1018 hPa | 0 mm | - | 588 W/m² | - |
| 1778097026 | 27.78° C | 68% | 1018.2 hPa | 0 mm | - | 617 W/m² | - |
| 1778096724 | 27.78° C | 65% | 1018.3 hPa | 0 mm | - | 640 W/m² | - |
| 1778096420 | 27.78° C | 67% | 1018.3 hPa | 0 mm | - | 590 W/m² | - |
| 1778096118 | 27.78° C | 68% | 1018.3 hPa | 0 mm | - | 581 W/m² | - |
| 1778095815 | 27.78° C | 67% | 1018.2 hPa | 0 mm | - | 716 W/m² | - |
| 1778095511 | 27.78° C | 69% | 1018.5 hPa | 0 mm | - | 679 W/m² | - |
| 1778095208 | 27.78° C | 69% | 1018.6 hPa | 0 mm | - | 615 W/m² | - |
| 1778094904 | 27.78° C | 68% | 1018.6 hPa | 0 mm | - | 732 W/m² | - |
| 1778094601 | 27.78° C | 67% | 1018.7 hPa | 0 mm | - | 739 W/m² | - |
| 1778094298 | 27.78° C | 68% | 1018.6 hPa | 0 mm | - | 740 W/m² | - |
| 1778093994 | 27.78° C | 65% | 1018.9 hPa | 0 mm | - | 731 W/m² | - |
| 1778093692 | 27.78° C | 67% | 1018.8 hPa | 0 mm | - | 750 W/m² | - |
| 1778093388 | 27.78° C | 67% | 1018.8 hPa | 0 mm | - | 654 W/m² | - |
* Rain latest hour (hover to see other rain measurements)
** Current wind speed in m/s (hover to see current wind gust speed)